�������l�o���
Date,Time,MP-1(��Sv/h),MP-2(��Sv/h),MP-3(��Sv/h),MP-4(��Sv/h),MP-5(��Sv/h),MP-6(��Sv/h),MP-7(��Sv/h),MP-8(��Sv/h),����,����(m/s),���J
2022/01/20,00:00,0.581,0.873,0.556,1.072,0.752,0.353,0.612,0.581,���k��,8.6,��
2022/01/20,00:10,0.582,0.871,0.555,1.073,0.750,0.351,0.612,0.581,���k��,5.3,��
2022/01/20,00:20,0.582,0.874,0.553,1.072,0.751,0.350,0.612,0.580,�k��,2.3,��
2022/01/20,00:30,0.581,0.874,0.554,1.073,0.752,0.352,0.611,0.581,�k,2.9,��
2022/01/20,00:40,0.581,0.873,0.555,1.072,0.751,0.352,0.610,0.580,�k�k��,4.6,��
2022/01/20,00:50,0.582,0.873,0.554,1.073,0.750,0.351,0.612,0.580,�k��,5.7,��
2022/01/20,01:00,0.581,0.874,0.555,1.072,0.749,0.350,0.611,0.580,�k��,5.8,��
2022/01/20,01:10,0.581,0.872,0.555,1.072,0.752,0.350,0.612,0.579,�k��,4.0,��
2022/01/20,01:20,0.582,0.870,0.555,1.072,0.751,0.350,0.613,0.580,�k��,4.0,��
2022/01/20,01:30,0.581,0.872,0.554,1.072,0.753,0.351,0.612,0.579,���k��,5.0,��
2022/01/20,01:40,0.580,0.871,0.554,1.072,0.750,0.351,0.610,0.580,���k��,7.9,��
2022/01/20,01:50,0.583,0.873,0.555,1.073,0.752,0.349,0.613,0.579,���k��,6.9,��
2022/01/20,02:00,0.582,0.872,0.555,1.072,0.750,0.350,0.612,0.580,���k��,7.2,��
2022/01/20,02:10,0.581,0.872,0.554,1.074,0.750,0.350,0.613,0.581,�k��,7.0,��
2022/01/20,02:20,0.580,0.872,0.552,1.074,0.751,0.350,0.612,0.580,���k��,8.3,��
2022/01/20,02:30,0.582,0.872,0.553,1.073,0.750,0.351,0.613,0.581,���k��,7.4,��
2022/01/20,02:40,0.581,0.873,0.553,1.073,0.749,0.349,0.611,0.579,�k��,7.4,��
2022/01/20,02:50,0.581,0.873,0.551,1.073,0.752,0.350,0.613,0.580,�k��,4.7,��
2022/01/20,03:00,0.580,0.871,0.553,1.072,0.752,0.351,0.612,0.581,���k��,7.7,��
2022/01/20,03:10,0.582,0.873,0.554,1.073,0.750,0.351,0.613,0.581,���k��,7.0,��
2022/01/20,03:20,0.582,0.873,0.555,1.073,0.750,0.351,0.612,0.579,���k��,5.6,��
2022/01/20,03:30,0.581,0.872,0.553,1.073,0.750,0.352,0.612,0.581,�k��,3.1,��
2022/01/20,03:40,0.580,0.871,0.555,1.073,0.751,0.350,0.612,0.580,�k�k��,3.7,��
2022/01/20,03:50,0.582,0.873,0.554,1.074,0.751,0.350,0.612,0.581,�k�k��,6.7,��
2022/01/20,04:00,0.582,0.872,0.554,1.072,0.749,0.352,0.610,0.580,�k��,6.1,��
2022/01/20,04:10,0.579,0.873,0.555,1.072,0.753,0.350,0.611,0.580,�k�k��,5.2,��
2022/01/20,04:20,0.580,0.870,0.555,1.076,0.750,0.351,0.610,0.579,�k��,4.8,��
2022/01/20,04:30,0.582,0.870,0.553,1.073,0.750,0.352,0.613,0.580,�k��,3.2,��
2022/01/20,04:40,0.579,0.873,0.554,1.072,0.750,0.351,0.611,0.579,�k��,3.4,��
2022/01/20,04:50,0.581,0.871,0.555,1.072,0.750,0.352,0.612,0.580,�k��,3.7,��
2022/01/20,05:00,0.580,0.871,0.554,1.073,0.750,0.351,0.611,0.580,���k��,4.1,��
2022/01/20,05:10,0.579,0.870,0.556,1.071,0.748,0.350,0.612,0.580,�k��,3.6,��
2022/01/20,05:20,0.581,0.873,0.553,1.072,0.749,0.351,0.611,0.581,���k��,3.3,��
2022/01/20,05:30,0.581,0.871,0.555,1.073,0.750,0.351,0.609,0.580,���k��,4.4,��
2022/01/20,05:40,0.580,0.870,0.556,1.069,0.749,0.351,0.610,0.579,�k��,5.6,��
2022/01/20,05:50,0.581,0.871,0.554,1.073,0.750,0.352,0.611,0.579,�k��,5.3,��
2022/01/20,06:00,0.580,0.872,0.553,1.072,0.749,0.351,0.610,0.580,�k��,4.8,��
2022/01/20,06:10,0.581,0.872,0.554,1.074,0.747,0.350,0.611,0.579,���k��,4.2,��
2022/01/20,06:20,0.580,0.869,0.554,1.070,0.750,0.350,0.611,0.580,�k��,4.3,��
2022/01/20,06:30,0.581,0.871,0.554,1.074,0.750,0.351,0.610,0.581,�k��,3.6,��
2022/01/20,06:40,0.582,0.872,0.554,1.070,0.749,0.351,0.610,0.578,�k�k��,3.1,��
2022/01/20,06:50,0.580,0.873,0.553,1.072,0.751,0.351,0.611,0.580,�k�k��,3.0,��
2022/01/20,07:00,0.580,0.871,0.552,1.073,0.748,0.351,0.609,0.579,�k�k��,2.6,��
2022/01/20,07:10,0.580,0.870,0.554,1.070,0.748,0.351,0.611,0.580,�k�k��,2.6,��
2022/01/20,07:20,0.580,0.871,0.553,1.072,0.749,0.352,0.611,0.579,�k�k��,2.3,��
2022/01/20,07:30,0.579,0.870,0.554,1.072,0.750,0.349,0.611,0.579,�k��,3.3,��
2022/01/20,07:40,0.580,0.870,0.554,1.072,0.750,0.352,0.612,0.578,�k��,3.1,��
2022/01/20,07:50,0.581,0.870,0.554,1.073,0.749,0.350,0.611,0.581,�k��,2.3,��
2022/01/20,08:00,0.581,0.870,0.553,1.070,0.749,0.350,0.610,0.580,�k��,3.2,��
2022/01/20,08:10,0.581,0.871,0.554,1.072,0.749,0.351,0.612,0.578,�k��,3.6,��
2022/01/20,08:20,0.583,0.872,0.555,1.071,0.748,0.352,0.612,0.581,�k��,5.1,��
2022/01/20,08:30,0.580,0.870,0.555,1.074,0.749,0.350,0.611,0.580,���k��,4.8,��
2022/01/20,08:40,0.580,0.870,0.553,1.072,0.750,0.351,0.613,0.580,�k��,4.4,��
2022/01/20,08:50,0.581,0.869,0.555,1.072,0.747,0.351,0.612,0.580,�k��,3.7,��
2022/01/20,09:00,0.582,0.867,0.554,1.073,0.748,0.350,0.612,0.581,�k�k��,2.3,��
2022/01/20,09:10,0.582,0.869,0.554,1.074,0.748,0.351,0.611,0.581,�k��,3.1,��
2022/01/20,09:20,0.583,0.869,0.554,1.072,0.749,0.350,0.612,0.581,�k�k��,2.3,��
2022/01/20,09:30,0.581,0.869,0.554,1.071,0.749,0.350,0.614,0.581,�k,1.5,��
2022/01/20,09:40,0.583,0.869,0.555,1.074,0.748,0.349,0.612,0.580,�k��,2.0,��
2022/01/20,09:50,0.582,0.867,0.555,1.074,0.749,0.351,0.613,0.581,�k�k��,3.2,��
2022/01/20,10:00,0.583,0.869,0.556,1.073,0.749,0.351,0.613,0.580,�k,3.1,��
2022/01/20,10:10,0.582,0.869,0.555,1.074,0.749,0.351,0.611,0.582,�k,3.6,��
2022/01/20,10:20,0.583,0.868,0.556,1.073,0.749,0.352,0.611,0.581,�k�k��,2.3,��
2022/01/20,10:30,0.583,0.868,0.554,1.073,0.749,0.352,0.610,0.580,-,-,��
2022/01/20,10:40,0.584,0.867,0.554,1.073,0.751,0.351,0.610,0.580,-,-,��
2022/01/20,10:50,0.582,0.868,0.556,1.072,0.750,0.352,0.611,0.581,-,-,��
2022/01/20,11:00,0.582,0.865,0.556,1.074,0.750,0.351,0.611,0.580,-,-,��
2022/01/20,11:10,0.582,0.866,0.556,1.072,0.751,0.351,0.612,0.580,-,-,��
2022/01/20,11:20,0.583,0.865,0.555,1.073,0.751,0.352,0.611,0.579,-,-,��
2022/01/20,11:30,0.585,0.866,0.556,1.073,0.751,0.352,0.610,0.581,-,-,��
2022/01/20,11:40,0.585,0.865,0.554,1.076,0.751,0.352,0.609,0.581,-,-,��
2022/01/20,11:50,0.584,0.866,0.556,1.076,0.751,0.352,0.611,0.581,-,-,��
2022/01/20,12:00,0.583,0.870,0.557,1.074,0.752,0.352,0.611,0.580,-,-,��
2022/01/20,12:10,0.584,0.867,0.557,1.072,0.753,0.351,0.611,0.580,-,-,��
2022/01/20,12:20,0.585,0.867,0.557,1.077,0.751,0.352,0.611,0.582,-,-,��
2022/01/20,12:30,0.586,0.868,0.557,1.072,0.754,0.352,0.609,0.581,-,-,��
2022/01/20,12:40,0.584,0.868,0.557,1.075,0.752,0.353,0.611,0.582,-,-,��
2022/01/20,12:50,0.584,0.867,0.556,1.075,0.753,0.351,0.612,0.581,-,-,��
2022/01/20,13:00,0.586,0.865,0.555,1.074,0.753,0.351,0.613,0.582,-,-,��
2022/01/20,13:10,0.586,0.868,0.557,1.073,0.752,0.353,0.611,0.581,-,-,��
2022/01/20,13:20,0.585,0.868,0.557,1.075,0.753,0.353,0.612,0.582,-,-,��
2022/01/20,13:30,0.584,0.870,0.556,1.074,0.754,0.353,0.613,0.582,-,-,��
2022/01/20,13:40,0.585,0.870,0.556,1.075,0.754,0.352,0.612,0.581,���k��,4.8,��
2022/01/20,13:50,0.584,0.873,0.557,1.076,0.754,0.353,0.612,0.582,���쐼,6.5,��
2022/01/20,14:00,0.584,0.871,0.556,1.073,0.753,0.353,0.611,0.583,���쐼,5.8,��
2022/01/20,14:10,0.586,0.874,0.556,1.073,0.753,0.352,0.613,0.582,���쐼,4.7,��
2022/01/20,14:20,0.585,0.874,0.557,1.075,0.755,0.354,0.613,0.581,��,5.6,��
2022/01/20,14:30,0.585,0.874,0.557,1.075,0.753,0.352,0.613,0.580,���k��,5.3,��
2022/01/20,14:40,0.586,0.873,0.555,1.076,0.755,0.353,0.615,0.582,��,5.6,��
2022/01/20,14:50,0.585,0.875,0.557,1.076,0.755,0.352,0.613,0.581,��,5.3,��
2022/01/20,15:00,0.585,0.874,0.559,1.077,0.753,0.353,0.614,0.581,��,7.0,��
2022/01/20,15:10,0.585,0.874,0.556,1.074,0.755,0.352,0.614,0.582,��,6.2,��
2022/01/20,15:20,0.585,0.876,0.558,1.078,0.754,0.353,0.614,0.583,���k��,5.1,��
2022/01/20,15:30,0.585,0.874,0.558,1.076,0.754,0.353,0.615,0.583,��,5.1,��
2022/01/20,15:40,0.584,0.875,0.557,1.076,0.753,0.353,0.614,0.581,���k��,4.9,��
2022/01/20,15:50,0.584,0.875,0.557,1.076,0.755,0.352,0.613,0.581,���k��,5.3,��
2022/01/20,16:00,0.585,0.874,0.557,1.074,0.753,0.352,0.615,0.582,�k��,4.5,��
2022/01/20,16:10,0.585,0.874,0.558,1.075,0.754,0.353,0.614,0.582,���k��,4.3,��
2022/01/20,16:20,0.586,0.874,0.556,1.075,0.754,0.353,0.614,0.582,���k��,3.1,��
2022/01/20,16:30,0.583,0.874,0.556,1.073,0.754,0.353,0.613,0.581,���k��,5.4,��
2022/01/20,16:40,0.582,0.874,0.556,1.076,0.753,0.352,0.614,0.582,���k��,5.5,��
2022/01/20,16:50,0.583,0.876,0.555,1.074,0.753,0.352,0.613,0.579,���k��,5.2,��
2022/01/20,17:00,0.583,0.873,0.557,1.075,0.752,0.352,0.613,0.582,���k��,5.2,��
2022/01/20,17:10,0.582,0.872,0.556,1.074,0.754,0.351,0.614,0.581,��,4.9,��
2022/01/20,17:20,0.583,0.875,0.556,1.077,0.753,0.352,0.615,0.581,��,4.7,��
2022/01/20,17:30,0.583,0.872,0.556,1.074,0.753,0.353,0.613,0.582,��,5.2,��
2022/01/20,17:40,0.583,0.873,0.556,1.074,0.753,0.351,0.614,0.581,���쐼,3.2,��
2022/01/20,17:50,0.584,0.873,0.556,1.075,0.752,0.353,0.614,0.582,��,5.9,��
2022/01/20,18:00,0.584,0.872,0.556,1.075,0.755,0.351,0.612,0.582,��,6.8,��
2022/01/20,18:10,0.583,0.874,0.556,1.073,0.753,0.352,0.613,0.583,��,8.5,��
2022/01/20,18:20,0.583,0.874,0.555,1.076,0.753,0.351,0.612,0.580,��,10.4,��
2022/01/20,18:30,0.583,0.874,0.555,1.075,0.753,0.351,0.614,0.581,��,11.3,��
2022/01/20,18:40,0.583,0.872,0.555,1.075,0.753,0.351,0.613,0.581,���k��,8.8,��
2022/01/20,18:50,0.584,0.872,0.553,1.075,0.752,0.351,0.612,0.582,���k��,9.6,��
2022/01/20,19:00,0.582,0.872,0.553,1.074,0.755,0.349,0.613,0.581,���k��,7.7,�L
2022/01/20,19:10,0.584,0.874,0.555,1.076,0.756,0.351,0.614,0.580,���k��,11.7,��
2022/01/20,19:20,0.585,0.874,0.556,1.074,0.754,0.351,0.614,0.582,���k��,13.3,��
2022/01/20,19:30,0.583,0.875,0.554,1.074,0.753,0.350,0.613,0.582,��,10.0,��
2022/01/20,19:40,0.581,0.876,0.555,1.075,0.755,0.349,0.612,0.580,���k��,15.8,��
2022/01/20,19:50,0.582,0.872,0.555,1.075,0.752,0.351,0.611,0.583,�k��,15.2,��
2022/01/20,20:00,0.581,0.872,0.554,1.077,0.753,0.351,0.611,0.581,�k��,13.5,��
2022/01/20,20:10,0.582,0.873,0.555,1.078,0.753,0.349,0.610,0.582,�k��,12.4,��
2022/01/20,20:20,0.582,0.872,0.555,1.076,0.752,0.350,0.610,0.583,�k��,10.8,��
2022/01/20,20:30,0.581,0.873,0.554,1.074,0.752,0.352,0.609,0.583,���k��,9.3,�L
2022/01/20,20:40,0.582,0.873,0.553,1.080,0.755,0.351,0.611,0.581,���k��,10.2,��
2022/01/20,20:50,0.582,0.873,0.555,1.076,0.753,0.350,0.611,0.583,���k��,10.2,��
2022/01/20,21:00,0.583,0.874,0.555,1.077,0.753,0.351,0.613,0.584,���k��,9.9,��
2022/01/20,21:10,0.584,0.872,0.556,1.074,0.754,0.350,0.613,0.583,�k��,8.6,��
2022/01/20,21:20,0.583,0.873,0.555,1.075,0.752,0.351,0.613,0.583,�k��,7.0,��
2022/01/20,21:30,0.583,0.873,0.555,1.078,0.753,0.351,0.611,0.583,�k��,8.3,��
2022/01/20,21:40,0.581,0.875,0.555,1.075,0.755,0.352,0.613,0.582,�k��,9.9,��
2022/01/20,21:50,0.581,0.875,0.554,1.073,0.751,0.353,0.613,0.584,�k��,8.4,��
2022/01/20,22:00,0.581,0.874,0.557,1.076,0.753,0.351,0.612,0.583,�k��,10.0,��
2022/01/20,22:10,0.582,0.872,0.556,1.073,0.752,0.351,0.613,0.583,�k��,9.3,��
2022/01/20,22:20,0.583,0.875,0.557,1.073,0.752,0.350,0.610,0.583,�k��,10.2,��
2022/01/20,22:30,0.582,0.872,0.555,1.074,0.753,0.352,0.614,0.583,�k��,10.5,��
2022/01/20,22:40,0.580,0.873,0.557,1.076,0.752,0.351,0.612,0.582,�k��,10.2,��
2022/01/20,22:50,0.581,0.872,0.556,1.074,0.752,0.351,0.612,0.582,�k��,9.6,��
2022/01/20,23:00,0.582,0.875,0.554,1.072,0.753,0.351,0.613,0.582,�k��,9.8,��
2022/01/20,23:10,0.583,0.872,0.556,1.075,0.753,0.352,0.613,0.583,�k��,7.8,��
2022/01/20,23:20,0.582,0.872,0.554,1.075,0.753,0.350,0.611,0.582,�k��,8.5,��
2022/01/20,23:30,0.583,0.873,0.554,1.075,0.754,0.350,0.612,0.583,�k��,8.8,��
2022/01/20,23:40,0.582,0.873,0.554,1.073,0.752,0.352,0.612,0.581,�k��,8.3,��
2022/01/20,23:50,0.582,0.873,0.557,1.074,0.753,0.352,0.613,0.582,�k��,6.4,��
